Content
SEND FEEDBACK

Daily
Averages
Monthly
Summary
United States of America

BOILING SPRING LAKES, NORTH CAROLINA


Home > North America > United States > North Carolina
Elevation: 20 feet     Latitude: 34 00N     Longitude: 078 01W

WEATHER
 
SELECT A DAY
Number of Records: 143,963;   Date Range: 8/21/01 - 10/23/14
 
SHARE

PRINT THIS DATA

[ ← Previous Day ]
WEATHER ALMANAC - JANUARY 4, 2013
[ Next Day → ]
[ °C ]   °F
Weather ElementAverageHighLow
Temperature40.5 °F49.3 °F (2:15 pm)29.8 °F (7:15 am)
Dewpoint30.2 °F33.8 °F (8:15 pm)25.2 °F (10:35 am)
Humidity69 %96 % (1:55 am)41 % (12:55 pm)
Barometer30.28 in30.34 in (9:35 am)30.23 in (4:55 pm)
Wind Speed5.2 mph10.4 mph (3:15 pm)
Weather ElementAverage
Visibility9.2 mi
Wind DirectionWSW (242.6 °)

Weather ElementTotal
Precipitation---
Heating Degree Days25.5 (Base 65)
Averaged from 61 records on January 4, 2013
WEATHER CONDITIONS BREAKOUT
WIND DIRECTION BREAKOUT
WEATHER BY HOUR - JANUARY 4, 2013
[ °C ]   °F
Local TimeTemperatureDewpointHumidityBarometerVisibilityWind DirectionWind SpeedGust SpeedPrecipitationEventsConditions
12:35 AM34.7 °F32.9 °F93 %30.26 in7.0 miNNW (340°)5.8 mphClear
1:15 AM33.8 °F32.0 °F93 %30.26 in7.0 miNorth (350°)4.6 mphClear
1:35 AM33.3 °F32.0 °F95 %30.26 in7.0 miNorth (350°)5.8 mphClear
1:55 AM32.7 °F31.6 °F96 %30.26 in7.0 miNorth (10°)3.5 mphClear
2:15 AM32.0 °F31.1 °F96 %30.26 in7.0 miCalmClear
2:35 AM32.0 °F30.9 °F96 %30.27 in7.0 miCalmClear
2:55 AM32.0 °F30.6 °F94 %30.27 in7.0 miNNW (340°)5.8 mphClear
3:15 AM32.0 °F30.0 °F92 %30.27 in7.0 miNorth (350°)4.6 mphClear
3:35 AM31.8 °F29.3 °F90 %30.28 in10.0 miNNW (340°)3.5 mphClear
3:55 AM31.8 °F29.3 °F90 %30.28 in10.0 miNNW (340°)6.9 mphClear
4:15 AM31.8 °F29.3 °F90 %30.28 in10.0 miNNW (340°)5.8 mphClear
7:15 AM29.8 °F28.4 °F94 %30.30 in5.0 miNorth (360°)3.5 mphClear
7:35 AM30.0 °F28.4 °F94 %30.31 in5.0 miNorth (360°)3.5 mphClear
7:55 AM31.1 °F28.9 °F92 %30.31 in5.0 miCalmClear
8:15 AM32.0 °F29.5 °F90 %30.32 in5.0 miCalmClear
8:35 AM33.8 °F30.7 °F89 %30.32 in7.0 miNNE (20°)3.5 mphClear
8:55 AM35.6 °F31.8 °F86 %30.33 in7.0 miNorth (10°)3.5 mphClear
9:15 AM37.6 °F32.0 °F80 %30.33 in10.0 miNorth (360°)6.9 mphClear
9:35 AM38.8 °F30.4 °F72 %30.34 in10.0 miNorth (360°)6.9 mphClear
9:55 AM40.5 °F29.3 °F64 %30.34 in10.0 miNorth (10°)8.1 mphClear
10:15 AM41.7 °F26.8 °F55 %30.34 in10.0 miNorth (360°)9.2 mphClear
10:35 AM42.8 °F25.2 °F50 %30.34 in10.0 miNorth (350°)8.1 mphClear
10:55 AM44.1 °F27.5 °F52 %30.33 in10.0 miNorth (10°)8.1 mphClear
11:15 AM44.6 °F25.9 °F48 %30.32 in10.0 miNorth (350°)8.1 mphClear
11:35 AM46.0 °F27.0 °F47 %30.31 in10.0 miNorth (10°)5.8 mphClear
11:55 AM46.4 °F26.2 °F45 %30.30 in10.0 miNNW (340°)6.9 mphClear
12:15 PM46.6 °F25.2 °F43 %30.29 in10.0 miNNW (330°)3.5 mphClear
12:35 PM46.4 °F25.3 °F44 %30.28 in10.0 miCalmClear
12:55 PM48.2 °F25.3 °F41 %30.27 in10.0 miWest (280°)6.9 mphClear
1:15 PM47.8 °F26.4 °F43 %30.26 in10.0 miWNW (290°)8.1 mphClear
1:35 PM48.2 °F27.0 °F44 %30.25 in10.0 miNW (310°)8.1 mphClear
1:55 PM48.2 °F26.2 °F42 %30.24 in10.0 miNW (320°)3.5 mphClear
2:15 PM49.3 °F27.1 °F42 %30.24 in10.0 miWest (280°)6.9 mphClear
2:35 PM48.6 °F30.9 °F51 %30.24 in10.0 miSW (230°)6.9 mphClear
2:55 PM48.2 °F30.9 °F51 %30.24 in10.0 miSW (230°)8.1 mphClear
3:15 PM47.3 °F30.7 °F53 %30.24 in10.0 miSW (230°)10.4 mphClear
3:35 PM46.9 °F32.0 °F56 %30.24 in10.0 miSW (220°)8.1 mphClear
3:55 PM47.3 °F32.2 °F56 %30.25 in10.0 miWSW (240°)9.2 mphClear
4:15 PM46.4 °F32.2 °F58 %30.24 in10.0 miWSW (240°)5.8 mphClear
4:35 PM46.4 °F32.2 °F58 %30.25 in10.0 miSW (230°)5.8 mphClear
4:55 PM45.5 °F32.7 °F61 %30.23 in10.0 miSW (230°)5.8 mphClear
5:15 PM44.6 °F33.1 °F64 %30.23 in10.0 miWSW (240°)3.5 mphClear
5:35 PM43.7 °F33.4 °F67 %30.23 in10.0 miWest (260°)3.5 mphClear
5:55 PM43.5 °F33.1 °F67 %30.24 in10.0 miWest (260°)3.5 mphClear
6:15 PM43.2 °F33.1 °F68 %30.26 in10.0 miWest (280°)4.6 mphClear
6:35 PM42.3 °F33.1 °F70 %30.26 in10.0 miWest (260°)3.5 mphClear
6:55 PM41.9 °F33.1 °F71 %30.28 in10.0 miWest (280°)4.6 mphClear
7:15 PM41.9 °F33.1 °F71 %30.28 in10.0 miWest (280°)3.5 mphClear
7:35 PM40.8 °F33.3 °F74 %30.28 in10.0 miWest (270°)3.5 mphClear
7:55 PM40.8 °F33.4 °F75 %30.28 in10.0 miWest (280°)3.5 mphClear
8:15 PM40.5 °F33.8 °F77 %30.29 in10.0 miWest (280°)4.6 mphClear
8:35 PM41.5 °F32.5 °F70 %30.30 in10.0 miWNW (290°)5.8 mphClear
8:55 PM41.4 °F31.5 °F68 %30.30 in10.0 miWest (270°)6.9 mphClear
9:15 PM41.2 °F30.9 °F67 %30.30 in10.0 miWest (280°)4.6 mphClear
9:35 PM40.8 °F30.6 °F67 %30.30 in10.0 miWest (280°)5.8 mphClear
9:55 PM40.6 °F30.2 °F66 %30.31 in10.0 miWest (280°)4.6 mphClear
10:35 PM40.3 °F29.7 °F66 %30.31 in10.0 miWest (280°)4.6 mphClear
10:55 PM40.3 °F29.8 °F66 %30.31 in10.0 miWest (280°)6.9 mphClear
11:15 PM40.5 °F30.2 °F67 %30.31 in10.0 miWest (280°)6.9 mphClear
11:35 PM39.9 °F30.6 °F69 %30.31 in10.0 miWest (270°)4.6 mphClear
11:55 PM38.7 °F30.2 °F72 %30.31 in10.0 miWest (280°)4.6 mphClear
Hourly data recorded from KSUT, located miles away from Boiling Spring Lakes, North Carolina







STORIES FROM OUR PARTNERS